Weather History for Salon, France

Change the Weather History Date:

Monday, October 22, 2012

  Actual Average (LFML) Record (LFML)
Temperature  
Mean Temperature 65 °F -  
Max Temperature 71 °F 68 °F 79 °F (2013)
Min Temperature 59 °F 53 °F 42 °F (2003)
Growing Degree Days 15 (Base 50)    
Moisture  
Dew Point 61 °F    
Average Humidity 90    
Maximum Humidity 100    
Minimum Humidity 69    
Precipitation  
Precipitation 0.00 in - - ()
Sea Level Pressure  
Sea Level Pressure 30.05 in    
Wind  
Wind Speed 2 mph ()    
Max Wind Speed 8 mph    
Max Gust Speed -    
Visibility 5.5 miles    
Events Fog , Rain    
Averages and records for this station are not official NWS values.
T = Trace of Precipitation, MM = Missing Value Source: Averaged Metar Reports

Daily Weather History Graph

Daily Weather History Graph

Search for Another Location

Airport:

Trip Planner

Search our weather history database for the weather conditions in past years. The results will help you decide how hot, cold, wet, or windy it might be!

Date:

Astronomy

Oct. 22, 2012 Rise Set
Actual Time 8:02 AM CEST 6:44 PM CEST
Civil Twilight 7:33 AM CEST 7:13 PM CEST
Nautical Twilight 7:00 AM CEST 7:47 PM CEST
Astronomical Twilight 6:26 AM CEST 8:20 PM CEST
Moon 2:54 PM CEST 12:19 AM CEST
Length of Visible Light 11h 40m
Length of Day
10h 41m
First Quarter, 53% of the Moon is Illuminated
Oct 22
First Quarter
Oct 29
Full
Nov 7
Last Quarter
Nov 13
New
Nov 20
First Quarter

Hourly Weather History & Observations

Time (CEST) Temp. Dew Point Humidity Pressure Visibility Wind Dir Wind Speed Gust Speed Precip Events Conditions
12:00 AM 62.6 °F 60.8 °F 94% 30.01 in 6.2 mi ENE 8.1 mph - N/A Rain Light Rain
12:30 AM 62.6 °F 60.8 °F 94% 30.04 in 6.2 mi Variable 1.2 mph - N/A   Mostly Cloudy
1:00 AM 62.6 °F 60.8 °F 94% 30.04 in 6.2 mi Variable 1.2 mph - N/A Rain Light Rain
1:30 AM 62.6 °F 60.8 °F 94% 30.04 in 6.2 mi WNW 1.2 mph - N/A Rain Light Rain
2:00 AM 62.6 °F 60.8 °F 94% 30.01 in 3.7 mi NNW 3.5 mph - N/A Rain Rain
2:30 AM 62.6 °F 60.8 °F 94% 30.04 in 4.3 mi WSW 3.5 mph - N/A Rain Light Rain
3:00 AM 62.6 °F 60.8 °F 94% 30.01 in 6.2 mi Variable 2.3 mph - N/A Rain Light Rain
3:30 AM 62.6 °F 60.8 °F 94% 30.01 in 6.2 mi Calm Calm - N/A   Overcast
4:00 AM 62.6 °F 60.8 °F 94% 30.01 in 1.4 mi Calm Calm - N/A   Drizzle
4:30 AM 62.6 °F 60.8 °F 94% 30.04 in 3.7 mi Variable 1.2 mph - N/A   Overcast
5:00 AM 62.6 °F 60.8 °F 94% 30.04 in 4.3 mi ENE 3.5 mph - N/A   Overcast
5:30 AM 62.6 °F 60.8 °F 94% 30.04 in 5.0 mi NE 3.5 mph - N/A   Overcast
6:00 AM 60.8 °F 60.8 °F 100% 30.04 in 4.3 mi Calm Calm - N/A   Scattered Clouds
6:30 AM 60.8 °F 59.0 °F 94% 30.04 in 0.7 mi Variable 2.3 mph - N/A Fog Patches of Fog
7:00 AM 60.8 °F 59.0 °F 94% 30.04 in 3.1 mi NE 2.3 mph - N/A   Mostly Cloudy
7:30 AM 60.8 °F 59.0 °F 94% 30.04 in 4.3 mi Calm Calm - N/A   Partly Cloudy
8:00 AM 59.0 °F 59.0 °F 100% 30.04 in 3.1 mi NE 2.3 mph - N/A   Mostly Cloudy
8:30 AM 59.0 °F 59.0 °F 100% 30.04 in 5.6 mi Calm Calm - N/A   Unknown
9:00 AM 59.0 °F 59.0 °F 100% 30.06 in 6.2 mi Variable 2.3 mph - N/A   Unknown
9:30 AM 60.8 °F 59.0 °F 94% 30.06 in 6.2 mi Calm Calm - N/A   Mostly Cloudy
10:00 AM 60.8 °F 60.8 °F 100% 30.06 in 6.2 mi Calm Calm - N/A   Mostly Cloudy
10:30 AM 62.6 °F 60.8 °F 94% 30.06 in 6.2 mi Calm Calm - N/A   Mostly Cloudy
11:00 AM 62.6 °F 60.8 °F 94% 30.06 in 6.2 mi Calm Calm - N/A   Mostly Cloudy
11:30 AM 62.6 °F 60.8 °F 94% 30.06 in 6.2 mi Calm Calm - N/A   Overcast
12:00 PM 64.4 °F 62.6 °F 94% 30.06 in 6.2 mi NE 3.5 mph - N/A   Overcast
12:30 PM 64.4 °F 60.8 °F 88% 30.09 in 6.2 mi Variable 2.3 mph - N/A   Overcast
1:00 PM 68.0 °F 62.6 °F 83% 30.06 in 6.2 mi Variable 3.5 mph - N/A   Mostly Cloudy
1:30 PM 69.8 °F 62.6 °F 78% 30.06 in 6.2 mi NE 4.6 mph - N/A   Overcast
2:00 PM 69.8 °F 60.8 °F 73% 30.06 in 6.2 mi North 4.6 mph - N/A   Mostly Cloudy
2:30 PM 71.6 °F 62.6 °F 73% 30.04 in 6.2 mi Variable 2.3 mph - N/A   Mostly Cloudy
3:00 PM 71.6 °F 60.8 °F 69% 30.04 in 6.2 mi West 3.5 mph - N/A   Mostly Cloudy
3:30 PM 71.6 °F 60.8 °F 69% 30.04 in 6.2 mi Variable 2.3 mph - N/A   Overcast
4:30 PM 71.6 °F 62.6 °F 73% 30.04 in 6.2 mi Variable 2.3 mph - N/A   Mostly Cloudy
5:00 PM 71.6 °F 62.6 °F 73% 30.04 in 6.2 mi WNW 3.5 mph - N/A   Mostly Cloudy
5:30 PM 69.8 °F 62.6 °F 78% 30.04 in 6.2 mi NNW 8.1 mph - N/A   Overcast
6:00 PM 68.0 °F 62.6 °F 83% 30.04 in 6.2 mi NNE 4.6 mph - N/A   Overcast
6:30 PM 68.0 °F 62.6 °F 83% 30.04 in 6.2 mi North 5.8 mph - N/A   Mostly Cloudy
7:00 PM 66.2 °F 62.6 °F 88% 30.04 in 6.2 mi NNW 3.5 mph - N/A   Mostly Cloudy
7:30 PM 66.2 °F 62.6 °F 88% 30.04 in 6.2 mi Variable 2.3 mph - N/A   Overcast
8:00 PM 66.2 °F 62.6 °F 88% 30.06 in 6.2 mi Calm Calm - N/A   Mostly Cloudy
8:30 PM 66.2 °F 62.6 °F 88% 30.06 in 6.2 mi SW 5.8 mph - N/A   Mostly Cloudy
9:00 PM 66.2 °F 62.6 °F 88% 30.04 in 6.2 mi Calm Calm - N/A   Mostly Cloudy
9:30 PM 64.4 °F 62.6 °F 94% 30.06 in 6.2 mi South 3.5 mph - N/A   Mostly Cloudy
10:00 PM 64.4 °F 62.6 °F 94% 30.06 in 6.2 mi SW 2.3 mph - N/A   Overcast
10:30 PM 64.4 °F 62.6 °F 94% 30.06 in 6.2 mi WSW 2.3 mph - N/A Rain Light Rain
11:00 PM 64.4 °F 62.6 °F 94% 30.06 in 6.2 mi West 2.3 mph - N/A   Overcast
11:30 PM 64.4 °F 62.6 °F 94% 30.06 in 6.2 mi SW 5.8 mph - N/A   Mostly Cloudy